User: anonymous   Login
Location: Unspecified
(0.0000°N, 0.0000°E)
Time: 00:01:42
(UTC+00:00)
Language:

STARLINK-2065 - Orbit

View from above orbital plane
View from above orbital plane
View from above satellite
View from above satellite

Ground track
Ground track

The orbit is defined by the following mean orbital elements,

1 47672U          26145.66668980 +.00000000 +00000-0 +82685-3 0 00008
2 47672  53.1436 343.5074 0007255 254.0274  84.0638 15.95589628    06
Epoch (UTC): 25 May 2026 16:00:01
Eccentricity: 0.0007255
inclination: 53.1436°
perigee height: 282 km
apogee height: 292 km
right ascension of ascending node: 343.5074°
argument of perigee: 254.0274°
revolutions per day: 15.95589628
mean anomaly at epoch: 84.0638°

The dashed part of the orbit path shows where the satellite is in the earth's shadow,  

DLR